www.pogodaiklimat.ru

ПОГОДА в Bhuj-Rudramata

  • Прогноз погоды в Bhuj-Rudramata
  • Монитор погоды в Bhuj-Rudramata
  • Климат города

АРХИВ ПОГОДЫ в Bhuj-Rudramata

Время (UTC), дата Ветер
(напр.,м/с)
 
Видим.   Явления Облачность Т
(С)
Тd
(С)
f
(%)
Тe
(С)
Тes
(С)
Комфортность P
(гПа)
Po
(гПа)
Тmin
(С)
Tmax
(С)
R
(мм)
S
(см)
18 9.01 С 2 4000 м ясно +16.4 +5.7 49 +17 +17 1016.1 1016.0
21 9.01 С 2 4000 м ясно +13.8 +5.3 56 +13 +13 1015.2 1015.0
00 10.01 С 2 4000 м ясно +12.0 +5.6 65 +12 +12 1015.7 1016.0
03 10.01 штиль 0 4000 м ясно +11.6 +5.1 64 +11 +13 1017.6 1018.0 +10.4
06 10.01 С 2 4000 м ясно +18.8 +6.4 44 +20 +29 1018.7 1019.0
09 10.01 СВ 2 4000 м ясно +24.6 +2.1 23 +24 +32 комфорт 1015.0 1015.0
12 10.01 СВ 2 4000 м ясно +24.6 -0.2 19 +23 +24 комфорт 1014.2 1014.0 +26.4
15 10.01 СВ 1 4000 м ясно +17.4 +2.5 37 +18 +18 1016.6 1017.0
18 10.01 штиль 0 4000 м ясно +13.6 +2.8 48 +13 +13 1017.3 1017.0
21 10.01 штиль 0 4000 м ясно +12.2 +4.3 58 +12 +12 1016.4 1016.0
00 11.01 СВ 1 4000 м ясно +12.0 +1.8 50 +12 +12 1015.8 1016.0
03 11.01 штиль 0 4000 м ясно +12.4 +2.3 50 +12 +14 1017.7 1018.0 +10.2
06 11.01 штиль 0 4000 м ясно +23.4 +3.2 27 +23 +36 комфорт 1018.8 1019.0
09 11.01 штиль 0 4000 м ясно +26.4 +4.2 24 +25 +37 комфорт 1014.8 1015.0
12 11.01 СВ 1 4000 м ясно +25.8 +5.0 26 +25 +26 комфорт 1013.9 1014.0 +27.8
15 11.01 СВ 1 4000 м ясно +17.4 +2.5 37 +18 +18 1015.3 1015.0
18 11.01 штиль 0 4000 м ясно +14.8 +4.0 48 +15 +15 1015.5 1016.0
21 11.01 штиль 0 4000 м ясно +13.0 +4.3 55 +13 +13 1014.2 1014.0
00 12.01 штиль 0 4000 м ясно +12.0 +2.9 54 +12 +12 1014.3 1014.0
03 12.01 штиль 0 4000 м ясно +13.4 +1.3 44 +13 +15 1015.6 1016.0 +9.4
06 12.01 штиль 0 4000 м ясно +23.6 -0.9 20 +22 +35 комфорт 1016.9 1017.0
09 12.01 СВ 2 4000 м ясно +27.0 -0.5 17 +25 +35 комфорт 1014.0 1014.0
12 12.01 СВ 1 4000 м ясно +26.0 +2.0 21 +25 +25 комфорт 1012.6 1013.0 +28.5
15 12.01 штиль 0 4000 м ясно +17.2 +0.9 33 +17 +17 1013.9 1014.0
18 12.01 штиль 0 4000 м ясно +14.4 +3.4 48 +14 +14 1014.4 1014.0
21 12.01 штиль 0 4000 м ясно +12.8 +2.9 51 +13 +13 1013.4 1013.0
00 13.01 штиль 0 4000 м ясно +11.4 +3.8 60 +11 +11 1013.1 1013.0
03 13.01 штиль 0 4000 м ясно +12.6 +2.6 51 +13 +14 1015.3 1015.0 +10.2
06 13.01 В 2 4000 м ясно +22.4 +1.3 25 +22 +32 комфорт 1015.5 1016.0
09 13.01 СВ 2 4000 м ясно +25.6 +1.9 21 +24 +34 комфорт 1015.8 1016.0
12 13.01 В 2 4000 м ясно +25.6 +4.6 26 +25 +25 комфорт 1012.1 1012.0 +27.4
15 13.01 В 2 4000 м ясно +19.2 +4.2 37 +20 +20 1014.3 1014.0
18 13.01 В 2 4000 м ясно +17.6 +1.6 34 +18 +18 1013.6 1014.0
21 13.01 В 2 4000 м ясно +15.6 +2.8 42 +16 +16 1012.9 1013.0
00 14.01 В 2 4000 м 3/0
[Ci fib]
+13.4 +3.1 50 +13 +13 1012.8 1013.0
03 14.01 В 2 4000 м 6/0
[]
+15.8 +4.8 48 +16 +17 1014.4 1014.0 +13.2
06 14.01 В 2 4000 м 8/4 600 м
[Sc Ci fib]
+21.6 +5.7 35 +22 +28 комфорт 1014.2 1014.0
09 14.01 штиль 0 4000 м 6/0
[Ci fib]
+27.2 +9.1 32 +27 +38 жарко 1013.1 1013.0
12 14.01 СВ 2 4000 м 6/0
[Ci fib]
+25.0 +7.2 32 +25 +26 комфорт 1012.3 1012.0 +28.8
15 14.01 СВ 1 4000 м ясно +19.0 +7.2 46 +21 +21 комфорт 1015.0 1015.0
18 14.01 В 2 4000 м 4/0
[Ci fib]
+17.6 +6.3 47 +18 +18 1015.6 1016.0
21 14.01 штиль 0 4000 м 4/0
[Ci fib]
+16.0 +7.6 57 +16 +16 1014.9 1015.0
00 15.01 штиль 0 4000 м 4/0
[Ci fib]
+15.0 +7.3 60 +15 +15 1014.7 1015.0
03 15.01 штиль 0 4000 м 3/0
[]
+11.8 +7.5 75 +11 +13 1016.8 1017.0 +10.6
06 15.01 СВ 2 4000 м 5/0
[Ci fib]
+21.8 +6.5 37 +23 +32 комфорт 1018.6 1019.0
09 15.01 нст 1 4000 м ясно +25.0 +8.2 34 +25 +36 комфорт 1014.9 1015.0
12 15.01 нст 1 4000 м ясно +26.2 +10.6 38 +27 +28 жарко 1014.2 1014.0 +28.8
15 15.01 С 2 4000 м ясно +20.8 +8.7 46 +23 +23 комфорт 1016.0 1016.0
18 15.01 С 2 4000 м ясно +17.4 +10.3 63 +18 +18 1017.4 1017.0
21 15.01 С 2 4000 м ясно +16.0 +10.8 71 +16 +16 1016.3 1016.0
00 16.01 нст 1 4000 м 4/0
[Ci fib]
+13.4 +9.1 75 +14 +14 1017.0 1017.0
03 16.01 нст 1 4000 м 5/0
[Ci fib]
+12.6 +9.0 79 +13 +14 1019.0 1019.0 +12.0
06 16.01 СВ 3 4000 м 5/0
[Ci fib]
+20.6 +8.9 47 +22 +30 комфорт 1019.2 1019.0
09 16.01 СВ 2 4000 м 5/0
[Ci fib]
+24.8 +9.0 37 +25 +34 комфорт 1016.2 1016.0
12 16.01 СВ 2 4000 м 5/0
[Ci fib]
+24.0 +6.7 33 +24 +25 комфорт 1015.6 1016.0 +26.0
15 16.01 нст 1 4000 м 3/0
[Ci fib]
+18.4 +7.9 50 +20 +20 1017.3 1017.0

 

Местоположение метеостанции Bhuj-Rudramata (Gujarat, Индия): широта 23.25 долгота 69.67 высота над уровнем моря 80 м.

В архиве по умолчанию представлена погода в Bhuj-Rudramata за последнюю неделю. Архивные данные за месяц целиком и за предыдущие месяцы, начиная с января 2011 года, Вы можете получить, выбрав интересующий диапазон дат из раскрывающегося списка и нажав кнопку "Ввод!".

Внимание! Время в таблицах - всемирное. Для получения местного времени необходимо прибавить поправку, которая в Bhuj-Rudramata равна 5.5 ч.

Ветер - указаны скорость ветра в м/с - средняя за 10 мин, порывы в срок и между сроками (в фигурных скобках) и направление, откуда дует ветер: С - северный, СВ - северо-восточный, В - восточный, ЮВ - юго-восточный, Ю - южный, ЮЗ - юго-западный, З - западный, СЗ - северо-западный.
Видимость - горизонтальная дальность видимости в метрах или километрах. При видимости от 1 до 10 км при отсутствии осадков обычно наблюдается дымка, при ухудшении видимости до 1 км и менее - туман. В сухую погоду видимость может ухудшаться дымом, пылью или мглою.
Явления - указаны атмосферные явления, наблюдавшиеся в срок или в последний час перед сроком; фигурными скобками обозначены явления, наблюдавшиеся между сроками (за 1-3 часа до срока); квадратными скобками обозначены град или гололедные отложения с указанием их диаметра в мм.
Облачность - указаны через наклонную черту общая и нижняя облачность в баллах и высота нижней границы облаков в метрах; квадратными скобками обозначены формы облаков: Ci - перистые, Cs - перисто-слоистые, Cc - перисто-кучевые, Ac - высококучевые, As - высокослоистые, Sc - слоисто-кучевые, Ns - слоисто-дождевые, Cu - кучевые, Cb - кучево-дождевые. Подробнее классификацию облаков см. в Атласе облаков (PDF).
T - Температура воздуха - температура, измеренная на высоте 2 м над землей.
Td - Температура точки росы - температура, при понижении до которой содержащийся в воздухе водяной пар достигнет насыщения.
f - Относительная влажность воздуха - влажноcть воздуха, измеренная на высоте 2 м над землей.
Te - Эффективная температура - температура, которую ощущает одетый по сезону человек в тени. Характеристика душности погоды. При расчете учитывается влияние влажности воздуха и скорости ветра на теплоощущения человека.
Tes - Эффективная температура на солнце - температура, которую ощущает человек, с поправкой на солнечный нагрев. Характеристика знойности погоды. Зависит от высоты солнца над горизонтом, облачности и скорости ветра. Ночью, в пасмурную погоду, а также при ветре 12 м/с и более поправка равна нулю.
P - Атмосферное давление - приведенное к уровню моря атмосферное давление.
Po - Атмосферное давление - измеренное на уровне метеостанции атмосферное давление.
Tmin - Минимальная температура - минимум температуры воздуха на высоте 2 м над землей.
Tmax - Максимальная температура - максимум температуры воздуха на высоте 2 м над землей.
R - Количество осадков - Количество выпавших осадков, мм. При наведении курсора мыши на число - период времени, за который выпало указанное количество осадков.
S - Снежный покров - Высота снежного покрова, см. При наведении курсора мыши на число - состояние снежного покрова и степень покрытия местности в баллах.